This is the latest recevied weather packets stored in our database for station/object N0TKN. If no packets are shown the sender has not sent any weather packets the latest 10 day(s).
| Time | Temp. | Humidity | Pressure | Rain* | Wind** | Luminosity | Snow |
|---|---|---|---|---|---|---|---|
| 1777479316 | 14.44° C | 57% | 1017.5 hPa | 0 mm | - | 885 W/m² | - |
| 1777478716 | 15° C | 60% | 1017.5 hPa | 0 mm | - | 835 W/m² | - |
| 1777478117 | 14.44° C | 60% | 1017.5 hPa | 0 mm | - | 788 W/m² | - |
| 1777477516 | 14.44° C | 61% | 1017.5 hPa | 0 mm | - | 768 W/m² | - |
| 1777476917 | 13.89° C | 61% | 1017.7 hPa | 0 mm | - | 745 W/m² | - |
| 1777476317 | 13.89° C | 62% | 1017.6 hPa | 0 mm | - | 714 W/m² | - |
| 1777475717 | 13.33° C | 63% | 1017.6 hPa | 0 mm | - | 689 W/m² | - |
| 1777475117 | 12.78° C | 65% | 1017.6 hPa | 0 mm | - | 661 W/m² | - |
| 1777474517 | 12.78° C | 65% | 1017.7 hPa | 0 mm | - | 632 W/m² | - |
| 1777473917 | 12.78° C | 67% | 1017.7 hPa | 0 mm | - | 602 W/m² | - |
| 1777473318 | 12.78° C | 69% | 1017.7 hPa | 0 mm | - | 572 W/m² | - |
| 1777472718 | 12.22° C | 72% | 1017.6 hPa | 0 mm | - | 537 W/m² | - |
| 1777472118 | 12.22° C | 73% | 1017.4 hPa | 0 mm | - | 504 W/m² | - |
| 1777471518 | 11.67° C | 76% | 1017.3 hPa | 0 mm | - | 470 W/m² | - |
| 1777470918 | 11.67° C | 77% | 1017.5 hPa | 0 mm | - | 435 W/m² | - |
| 1777470315 | 11.11° C | 78% | 1017.4 hPa | 0 mm | - | 401 W/m² | - |
| 1777469716 | 11.11° C | 80% | 1017.3 hPa | 0 mm | - | 366 W/m² | - |
| 1777469116 | 10.56° C | 81% | 1017.3 hPa | 0 mm | - | 331 W/m² | - |
| 1777468516 | 10.56° C | 81% | 1017.4 hPa | 0 mm | - | 296 W/m² | - |
| 1777467916 | 10.56° C | 83% | 1017.6 hPa | 0 mm | - | 260 W/m² | - |
| 1777467316 | 10° C | 85% | 1017.6 hPa | 0 mm | - | 224 W/m² | - |
| 1777466716 | 9.44° C | 86% | 1017.6 hPa | 0 mm | - | 188 W/m² | - |
| 1777466117 | 9.44° C | 87% | 1017.5 hPa | 0 mm | - | 155 W/m² | - |
| 1777465517 | 8.89° C | 88% | 1017.4 hPa | 0 mm | - | 124 W/m² | - |
| 1777464917 | 8.33° C | 90% | 1017.4 hPa | 0 mm | - | 96 W/m² | - |
* Rain latest hour (hover to see other rain measurements)
** Current wind speed in m/s (hover to see current wind gust speed)